Location: Doschendorf
(50.0069°N, 11.0602°E)
Time: 08:30:13
(UTC+00:00)

Cosmos 2263 Rocket - Pass Details

Date: 17 November 2019
Orbit: 825 x 847 km, 71.0° (Epoch: 09 December)

Event Time Altitude Azimuth Distance (km) Brightness Sun altitude
Rises 16:43:22 0° 333° (NNW) 3,378 5.5 -11.8°
Reaches altitude 10° 16:46:14 10° 347° (NNW) 2,440 4.6 -12.2°
Maximum altitude 16:50:50 26° 42° (NE) 1,594 3.2 -12.9°
Enters shadow 16:53:23 19° 81° (E) 1,890 3.4 -13.3°
